Weather History for KO54 - May, 2014

Change the Weather History Date:

Wednesday, May 28, 2014

  Actual Average (KRDD) Record (KRDD)
Temperature  
Mean Temperature 52 °F -  
Max Temperature 69 °F 85 °F 100 °F (2009)
Min Temperature 35 °F 57 °F 45 °F (2006)
Degree Days  
Heating Degree Days 13    
Cooling Degree Days 0    
Growing Degree Days 2 (Base 50)    
Moisture  
Dew Point 33 °F    
Average Humidity 46    
Maximum Humidity 87    
Minimum Humidity 25    
Precipitation  
Precipitation 0.00 in 0.06 in 1.48 in (1998)
Month to date precipitation 1.69  
Year to date precipitation 20.01  
Sea Level Pressure  
Sea Level Pressure 30.10 in    
Wind  
Wind Speed 6 mph (WSW)    
Max Wind Speed 14 mph    
Max Gust Speed 21 mph    
Visibility 10 miles    
Events      
T = Trace of Precipitation, MM = Missing Value Source: NWS Daily Summary

Daily Weather History Graph

Daily Weather History Graph

Search for Another Location

Airport or City:

Trip Planner

Search our weather history database for the weather conditions in past years. The results will help you decide how hot, cold, wet, or windy it might be!

Date:

Astronomy

May. 28, 2014 Rise Set
Actual Time 5:44 AM PDT 8:33 PM PDT
Civil Twilight 5:12 AM PDT 9:06 PM PDT
Nautical Twilight 4:31 AM PDT 9:47 PM PDT
Astronomical Twilight 3:44 AM PDT 10:34 PM PDT
Moon 5:55 AM PDT (5/28) 8:37 PM PDT (5/28)
Length of Visible Light 15h 54m
Length of Day
14h 49m
New Moon, 0% of the Moon is Illuminated
May 28
New Moon
Jun 5
First Quarter
Jun 12
Full
Jun 19
Last Quarter
Jun 27
New

Hourly Weather History & Observations

Time (PDT) Temp. Windchill Dew Point Humidity Pressure Visibility Wind Dir Wind Speed Gust Speed Precip Events Conditions
12:15 AM 48.2 °F - 33.8 °F 58% 30.09 in 10.0 mi WSW 6.9 mph - N/A   Overcast
12:35 AM 48.2 °F - 33.8 °F 58% 30.09 in 10.0 mi SW 9.2 mph - N/A   Overcast
12:55 AM 48.2 °F - 33.8 °F 58% 30.09 in 10.0 mi WSW 13.8 mph 20.7 mph N/A   Mostly Cloudy
1:15 AM 48.2 °F - 32.0 °F 54% 30.09 in 10.0 mi WSW 11.5 mph 17.3 mph N/A   Mostly Cloudy
1:35 AM 46.4 °F 42.4 °F 32.0 °F 57% 30.09 in 10.0 mi WSW 8.1 mph 18.4 mph N/A   Overcast
2:15 AM 46.4 °F 40.7 °F 32.0 °F 57% 30.09 in 10.0 mi SSW 12.7 mph 17.3 mph N/A   Mostly Cloudy
2:35 AM 46.4 °F 41.9 °F 32.0 °F 57% 30.09 in 10.0 mi SW 9.2 mph - N/A   Mostly Cloudy
2:55 AM 46.4 °F 42.4 °F 32.0 °F 57% 30.09 in 10.0 mi SW 8.1 mph - N/A   Mostly Cloudy
3:15 AM 46.4 °F 41.9 °F 32.0 °F 57% 30.10 in 10.0 mi SW 9.2 mph - N/A   Mostly Cloudy
3:35 AM 46.4 °F 42.4 °F 32.0 °F 57% 30.10 in 10.0 mi SW 8.1 mph - N/A   Scattered Clouds
3:55 AM 44.6 °F 39.2 °F 32.0 °F 61% 30.10 in 10.0 mi SW 10.4 mph - N/A   Scattered Clouds
4:15 AM 44.6 °F 39.7 °F 32.0 °F 61% 30.10 in 10.0 mi WSW 9.2 mph - N/A   Scattered Clouds
4:35 AM 44.6 °F 39.2 °F 32.0 °F 61% 30.10 in 10.0 mi SW 10.4 mph 16.1 mph N/A   Partly Cloudy
5:15 AM 37.4 °F 33.8 °F 32.0 °F 81% 30.10 in 10.0 mi NNE 4.6 mph - N/A   Partly Cloudy
5:35 AM 35.6 °F - 32.0 °F 87% 30.10 in 10.0 mi Calm Calm - N/A   Clear
5:55 AM 35.6 °F 32.8 °F 30.2 °F 81% 30.11 in 10.0 mi North 3.5 mph - N/A   Clear
6:15 AM 37.4 °F 34.9 °F 32.0 °F 81% 30.12 in 10.0 mi NE 3.5 mph - N/A   Clear
6:55 AM 39.2 °F - 32.0 °F 75% 30.12 in 10.0 mi Calm Calm - N/A   Clear
7:15 AM 41.0 °F 39.0 °F 32.0 °F 70% 30.12 in 10.0 mi NE 3.5 mph - N/A   Clear
7:35 AM 44.6 °F - 32.0 °F 61% 30.12 in 10.0 mi Calm Calm - N/A   Clear
7:55 AM 46.4 °F - 32.0 °F 57% 30.12 in 10.0 mi Calm Calm - N/A   Clear
8:15 AM 48.2 °F - 32.0 °F 54% 30.12 in 10.0 mi SW 3.5 mph - N/A   Clear
8:35 AM 50.0 °F - 32.0 °F 50% 30.13 in 10.0 mi WSW 4.6 mph - N/A   Clear
9:15 AM 51.8 °F - 32.0 °F 47% 30.14 in 10.0 mi SSE 4.6 mph - N/A   Clear
9:35 AM 53.6 °F - 32.0 °F 44% 30.13 in 10.0 mi SSE 3.5 mph - N/A   Clear
9:55 AM 55.4 °F - 32.0 °F 41% 30.13 in 10.0 mi Calm Calm - N/A   Clear
10:15 AM 55.4 °F - 32.0 °F 41% 30.13 in 10.0 mi Calm Calm - N/A   Clear
10:35 AM 57.2 °F - 32.0 °F 38% 30.12 in 10.0 mi SSW 8.1 mph - N/A   Clear
10:55 AM 59.0 °F - 32.0 °F 36% 30.12 in 10.0 mi SSE 3.5 mph - N/A   Clear
11:15 AM 59.0 °F - 32.0 °F 36% 30.11 in 10.0 mi NNW 4.6 mph - N/A   Clear
11:35 AM 59.0 °F - 30.2 °F 34% 30.11 in 10.0 mi South 6.9 mph - N/A   Clear
11:55 AM 62.6 °F - 28.4 °F 27% 30.11 in 10.0 mi South 4.6 mph - N/A   Clear
12:15 PM 62.6 °F - 28.4 °F 27% 30.11 in 10.0 mi WSW 6.9 mph - N/A   Clear
12:35 PM 62.6 °F - 30.2 °F 30% 30.10 in 10.0 mi SSE 5.8 mph - N/A   Clear
12:55 PM 64.4 °F - 32.0 °F 30% 30.10 in 10.0 mi South 6.9 mph - N/A   Clear
1:15 PM 64.4 °F - 32.0 °F 30% 30.10 in 10.0 mi WSW 5.8 mph - N/A   Clear
1:35 PM 64.4 °F - 32.0 °F 30% 30.10 in 10.0 mi West 6.9 mph - N/A   Clear
1:55 PM 66.2 °F - 30.2 °F 26% 30.09 in 10.0 mi SW 9.2 mph - N/A   Clear
2:15 PM 66.2 °F - 32.0 °F 28% 30.09 in 10.0 mi SW 10.4 mph - N/A   Partly Cloudy
2:35 PM 66.2 °F - 30.2 °F 26% 30.09 in 10.0 mi West 4.6 mph - N/A   Scattered Clouds
2:55 PM 66.2 °F - 32.0 °F 28% 30.09 in 10.0 mi Calm Calm - N/A   Scattered Clouds
3:15 PM 64.4 °F - 32.0 °F 30% 30.09 in 10.0 mi Calm Calm - N/A   Mostly Cloudy
3:35 PM 66.2 °F - 32.0 °F 28% 30.08 in 10.0 mi SW 4.6 mph - N/A   Partly Cloudy
3:55 PM 68.0 °F - 32.0 °F 26% 30.08 in 10.0 mi West 5.8 mph 18.4 mph N/A   Clear
4:15 PM 68.0 °F - 32.0 °F 26% 30.07 in 10.0 mi WSW 8.1 mph - N/A   Clear
4:35 PM 69.8 °F - 32.0 °F 25% 30.07 in 10.0 mi WSW 6.9 mph - N/A   Clear
4:55 PM 68.0 °F - 32.0 °F 26% 30.07 in 10.0 mi SSW 6.9 mph - N/A   Clear
5:15 PM 68.0 °F - 32.0 °F 26% 30.06 in 10.0 mi SW 3.5 mph - N/A   Clear
5:35 PM 68.0 °F - 32.0 °F 26% 30.06 in 10.0 mi WSW 9.2 mph - N/A   Clear
5:55 PM 68.0 °F - 33.8 °F 28% 30.06 in 10.0 mi West 5.8 mph - N/A   Clear
6:15 PM 68.0 °F - 33.8 °F 28% 30.05 in 10.0 mi WNW 5.8 mph - N/A   Clear
6:35 PM 68.0 °F - 35.6 °F 30% 30.05 in 10.0 mi WNW 5.8 mph - N/A   Clear
6:55 PM 66.2 °F - 35.6 °F 32% 30.05 in 10.0 mi NW 6.9 mph - N/A   Clear
7:15 PM 66.2 °F - 35.6 °F 32% 30.05 in 10.0 mi Calm Calm - N/A   Clear
7:35 PM 64.4 °F - 37.4 °F 37% 30.06 in 10.0 mi WNW 3.5 mph - N/A   Clear
7:55 PM 62.6 °F - 37.4 °F 39% 30.07 in 10.0 mi North 4.6 mph - N/A   Clear
8:15 PM 59.0 °F - 37.4 °F 45% 30.07 in 10.0 mi Calm Calm - N/A   Clear
8:55 PM 53.6 °F - 37.4 °F 54% 30.08 in 10.0 mi Calm Calm - N/A   Partly Cloudy
9:15 PM 53.6 °F - 37.4 °F 54% 30.08 in 10.0 mi ENE 4.6 mph - N/A   Scattered Clouds
9:35 PM 50.0 °F - 35.6 °F 58% 30.09 in 10.0 mi NNW 4.6 mph - N/A   Partly Cloudy
9:55 PM 50.0 °F - 33.8 °F 54% 30.10 in 10.0 mi North 3.5 mph - N/A   Scattered Clouds
10:15 PM 48.2 °F - 33.8 °F 58% 30.11 in 10.0 mi NNE 3.5 mph - N/A   Scattered Clouds
10:35 PM 48.2 °F - 33.8 °F 58% 30.11 in 10.0 mi NNE 4.6 mph - N/A   Mostly Cloudy
10:55 PM 46.4 °F - 32.0 °F 57% 30.11 in 10.0 mi Calm Calm - N/A   Mostly Cloudy
11:15 PM 46.4 °F - 33.8 °F 62% 30.11 in 10.0 mi Calm Calm - N/A   Mostly Cloudy
11:35 PM 44.6 °F 43.1 °F 33.8 °F 66% 30.11 in 10.0 mi North 3.5 mph - N/A   Scattered Clouds
11:55 PM 44.6 °F - 32.0 °F 61% 30.11 in 10.0 mi Calm Calm - N/A   Mostly Cloudy